Location: Newark
(54.0610°N, 4.7980°W)
Time: 12:03:50
(UTC+00:00)

N. Korean satellite - Visible Passes

Search period start: 22 October 2019 00:00
Search period end: 01 November 2019 00:00
Orbit: 455 x 508 km, 97.2° (Epoch: 21 October)

Date Brightness Start Highest point End Pass type
(mag) Time Alt. Az. Time Alt. Az. Time Alt. Az.
22 Oct 9.6 05:30:28 10° NE 05:33:18 21° E 05:36:08 10° SE visible
22 Oct 8.3 17:45:20 10° SSW 17:48:33 37° W 17:51:51 10° NNW visible
23 Oct 10.3 05:06:11 10° ENE 05:07:44 12° E 05:09:18 10° ESE visible
24 Oct 7.4 06:12:41 10° NNE 06:16:18 57° E 06:19:54 10° S visible
24 Oct 10.0 18:29:41 10° WSW 18:31:39 14° W 18:33:39 10° NW visible
25 Oct 8.8 05:47:35 10° NNE 05:50:53 31° E 05:54:11 10° SSE visible
25 Oct 9.2 18:03:11 10° SSW 18:06:06 25° W 18:09:05 10° NW visible
26 Oct 9.8 05:22:47 10° NE 05:25:22 18° E 05:27:59 10° SE visible
26 Oct 7.8 17:37:17 10° S 17:40:38 46° W 17:44:04 10° NNW visible
27 Oct 10.5 04:59:04 10° ENE 04:59:47 10° E 05:00:30 10° E visible
27 Oct 6.7 06:30:05 10° NNE 06:33:45 88° E 06:37:28 10° SSW visible
28 Oct 7.8 06:04:50 10° NNE 06:08:24 47° E 06:11:59 10° S visible
28 Oct 9.8 18:21:17 10° SW 18:23:40 17° W 18:26:05 10° NW visible
29 Oct 9.1 05:39:47 10° NE 05:42:56 26° E 05:46:08 10° SSE visible
29 Oct 8.8 17:55:01 10° SSW 17:58:08 30° W 18:01:19 10° NNW visible
30 Oct 10.0 05:15:07 10° NE 05:17:24 16° E 05:19:42 10° SE visible
30 Oct 7.4 17:29:15 10° S 17:32:41 56° W 17:36:13 10° NNW visible
31 Oct 6.9 06:22:09 10° NNE 06:25:51 74° ESE 06:29:34 10° S visible
31 Oct 10.2 18:39:54 10° WSW 18:41:15 12° W 18:42:37 10° WNW visible
